Gesamt
Mundine Airport YDNE Wetter
There is no TAF data available at YDNE or any nearby airports.
There is no METAR data available at YDNE. Showing METAR data for YGDI (12 mi NO).
Aktueller METAR-Verlauf GOO (keine Daten für YDNE)
| Date | Time (AEST) | Flight Rules | Wind Dir. | Speed | Type | Height AGL (ft) | Visibility | Temp (°C) | Temp (°F) | Dew Point (°C) | Dew Point (°F) | Rel. Humid. | Pressure | Density Altitude | Remarks |
|---|---|---|---|---|---|---|---|---|---|---|---|---|---|---|---|
| 04-Mai | 10:00 | n/a | 20° | 9 kt | Missing | 23° | 73° | 14° | 57° | 57% | 1019 mb | 1.503 ft | |||
| 04-Mai | 09:00 | n/a | 50° | 8 kt | Missing | 21° | 69° | 14° | 57° | 64% | 1019 mb | 1.263 ft | |||
| 04-Mai | 08:00 | n/a | 70° | 6 kt | Missing | 18° | 64° | 14° | 57° | 77% | 1019 mb | 903 ft | |||
| 04-Mai | 07:00 | n/a | 80° | 3 kt | Missing | 15° | 59° | 13° | 55° | 88% | 1018 mb | 572 ft | |||
| 04-Mai | 06:00 | n/a | 90° | 5 kt | Missing | 15° | 59° | 13° | 55° | 88% | 1018 mb | 572 ft | |||
| 04-Mai | 05:00 | n/a | 80° | 3 kt | Missing | 14° | 57° | 12° | 53° | 88% | 1018 mb | 452 ft | |||
| 04-Mai | 04:00 | n/a | 70° | 4 kt | Missing | 16° | 60° | 13° | 55° | 82% | 1018 mb | 692 ft | |||
| 04-Mai | 03:00 | n/a | 70° | 4 kt | Missing | 17° | 62° | 13° | 55° | 77% | 1018 mb | 812 ft | |||
| 04-Mai | 02:00 | n/a | 60° | 5 kt | Missing | 18° | 64° | 13° | 55° | 73% | 1018 mb | 932 ft | |||
| 04-Mai | 01:00 | n/a | 60° | 5 kt | Missing | 18° | 64° | 12° | 53° | 68% | 1018 mb | 932 ft | |||
| 04-Mai | 00:00 | n/a | 70° | 7 kt | Missing | 19° | 66° | 12° | 53° | 64% | 1018 mb | 1.052 ft | |||
| 03-Mai | 23:00 | n/a | 60° | 6 kt | Missing | 20° | 68° | 11° | 51° | 56% | 1019 mb | 1.143 ft | |||
| 03-Mai | 22:00 | n/a | 60° | 7 kt | Missing | 20° | 68° | 9° | 48° | 49% | 1019 mb | 1.143 ft | |||
| 03-Mai | 21:00 | n/a | 100° | 5 kt | Missing | 20° | 68° | 7° | 44° | 43% | 1019 mb | 1.143 ft | |||
| 03-Mai | 20:00 | n/a | 50° | 5 kt | Missing | 22° | 71° | 8° | 46° | 41% | 1018 mb | 1.412 ft | |||
| 03-Mai | 19:00 | n/a | 50° | 3 kt | Missing | 21° | 69° | 7° | 44° | 40% | 1018 mb | 1.292 ft | |||
| 03-Mai | 18:00 | n/a | 50° | 4 kt | Missing | 24° | 75° | 7° | 44° | 34% | 1017 mb | 1.682 ft | |||
| 03-Mai | 17:00 | n/a | 70° | 4 kt | Missing | 27° | 80° | 8° | 46° | 30% | 1017 mb | 2.042 ft | |||
| 03-Mai | 16:00 | n/a | 60° | 5 kt | Missing | 28° | 82° | 8° | 46° | 28% | 1017 mb | 2.162 ft | |||
| 03-Mai | 15:00 | n/a | 20° | 4 kt | Missing | 28° | 82° | 8° | 46° | 28% | 1017 mb | 2.162 ft | |||
| 03-Mai | 14:00 | n/a | 80° | 7 kt | Missing | 28° | 82° | 8° | 46° | 28% | 1018 mb | 2.132 ft | |||
| 03-Mai | 13:00 | n/a | 100° | 6 kt | Missing | 28° | 82° | 9° | 48° | 30% | 1018 mb | 2.132 ft | |||
| 03-Mai | 12:00 | n/a | 60° | 6 kt | Missing | 26° | 78° | 9° | 48° | 34% | 1020 mb | 1.833 ft | |||
| 03-Mai | 11:00 | n/a | 60° | 8 kt | Missing | 25° | 77° | 10° | 50° | 39% | 1020 mb | 1.713 ft |
Anmelden
| Ihr Browser wird nicht unterstützt. aktualisieren Sie Ihren Browser |
